Location: Home
(42.5358°N, 72.7383°W)
Time: 01:52:42
(UTC-05:00)

Vanguard 1 Rocket - Pass Details

Date: 29 November 2021
Orbit: 651 x 4224 km, 34.3° (Epoch: 23 January)

Event Time Altitude Azimuth Distance (km) Brightness Sun altitude
Exits shadow 04:26:33 28° 237° (WSW) 3,885 10.1 -27.5°
Maximum altitude 04:36:34 65° 168° (SSE) 3,493 10.2 -25.7°
Drops below altitude 10° 05:01:07 10° 94° (E) 7,416 13.2 -21.2°
Sets 05:07:09 0° 92° (E) 8,458 13.9 -20.1°
